| time (UTC) | temp F | wind direction | speed knots | gust knots | rain 1hr in | rain 24hr in | rain mn in | humidity % | barometer mb |
| 20260505035702 | 63 | 0.0 | 0.0 | 0.00 | 0.00 | 0.00 | 57 | 1009.6 | |
| 20260505035202 | 63 | 0.0 | 0.0 | 0.00 | 0.00 | 0.00 | 56 | 1009.7 | |
| 20260505034703 | 63 | 0.0 | 0.0 | 0.00 | 0.00 | 0.00 | 56 | 1009.6 | |
| 20260505034159 | 64 | 0.0 | 0.0 | 0.00 | 0.00 | 0.00 | 56 | 1009.6 | |
| 20260505033653 | 64 | 0.0 | 0.0 | 0.00 | 0.00 | 0.00 | 55 | 1009.7 | |
| 20260505033151 | 64 | 0.0 | 0.0 | 0.00 | 0.00 | 0.00 | 54 | 1009.6 | |
| 20260505032646 | 64 | 0.0 | 0.0 | 0.00 | 0.00 | 0.00 | 54 | 1009.6 | |
| 20260505032148 | 64 | 0.0 | 0.0 | 0.00 | 0.00 | 0.00 | 54 | 1009.7 | |
| 20260505031646 | 64 | 0.0 | 0.0 | 0.00 | 0.00 | 0.00 | 53 | 1009.6 | |
| 20260505031146 | 65 | 0.0 | 0.0 | 0.00 | 0.00 | 0.00 | 53 | 1009.6 | |
| 20260505030145 | 65 | 0.0 | 0.0 | 0.00 | 0.00 | 0.00 | 53 | 1009.6 | |
| 20260505025648 | 65 | 0.0 | 0.0 | 0.00 | 0.00 | 0.00 | 53 | 1009.5 | |
| 20260505024645 | 65 | 0.0 | 0.0 | 0.00 | 0.00 | 0.00 | 52 | 1009.5 | |
| 20260505024146 | 65 | 0.0 | 0.0 | 0.00 | 0.00 | 0.00 | 52 | 1009.5 | |
| 20260505023646 | 65 | 0.0 | 0.0 | 0.00 | 0.00 | 0.00 | 52 | 1009.5 | |
| 20260505023144 | 65 | 0.0 | 0.0 | 0.00 | 0.00 | 0.00 | 52 | 1009.5 | |
| 20260505022645 | 65 | 0.0 | 0.0 | 0.00 | 0.00 | 0.00 | 52 | 1009.5 | |
| 20260505021644 | 66 | 0.0 | 0.0 | 0.00 | 0.00 | 0.00 | 50 | 1009.5 | |
| 20260505021144 | 66 | 0.0 | 0.0 | 0.00 | 0.00 | 0.00 | 50 | 1009.4 | |
| 20260505020644 | 66 | 0.0 | 0.0 | 0.00 | 0.00 | 0.00 | 50 | 1009.4 | |
| 20260505020144 | 67 | 0.0 | 0.0 | 0.00 | 0.00 | 0.00 | 50 | 1009.3 | |
| 20260505014643 | 68 | 0.0 | 0.0 | 0.00 | 0.00 | 0.00 | 48 | 1009.3 | |
| 20260505014145 | 68 | 0.0 | 0.0 | 0.00 | 0.00 | 0.00 | 47 | 1009.2 | |
| 20260505013643 | 68 | 0.0 | 0.0 | 0.00 | 0.00 | 0.00 | 47 | 1009.1 | |
| 20260505013143 | 68 | 0.0 | 0.0 | 0.00 | 0.00 | 0.00 | 46 | 1009.1 | |
| 20260505012645 | 69 | 0.0 | 0.0 | 0.00 | 0.00 | 0.00 | 46 | 1009.0 | |
| 20260505010643 | 69 | 0.0 | 0.0 | 0.00 | 0.00 | 0.00 | 45 | 1008.9 | |
| 20260505010142 | 69 | 0.0 | 0.0 | 0.00 | 0.00 | 0.00 | 44 | 1008.9 | |
| 20260505005643 | 70 | 0.0 | 0.0 | 0.00 | 0.00 | 0.00 | 44 | 1008.7 | |
| 20260505005143 | 70 | 0.0 | 0.0 | 0.00 | 0.00 | 0.00 | 43 | 1008.8 | |
| 20260505004642 | 70 | 0.0 | 0.0 | 0.00 | 0.00 | 0.00 | 42 | 1008.7 | |
| 20260505004142 | 70 | 0.0 | 0.0 | 0.00 | 0.00 | 0.00 | 42 | 1008.7 | |
| 20260505003641 | 71 | 0.0 | 0.0 | 0.00 | 0.00 | 0.00 | 42 | 1008.7 | |
| 20260505003142 | 71 | 0.0 | 0.0 | 0.00 | 0.00 | 0.00 | 42 | 1008.6 | |
| 20260505002642 | 71 | 0.0 | 0.0 | 0.00 | 0.00 | 0.00 | 41 | 1008.7 | |
| 20260505002145 | 71 | 0.0 | 0.0 | 0.00 | 0.00 | 0.00 | 41 | 1008.6 | |
| 20260505001644 | 71 | 0.0 | 0.0 | 0.00 | 0.00 | 0.00 | 40 | 1008.5 | |
| 20260505000642 | 71 | 0.0 | 0.0 | 0.00 | 0.00 | 0.00 | 40 | 1008.6 | |
| 20260505000141 | 71 | 0.0 | 0.0 | 0.00 | 0.00 | 0.00 | 40 | 1008.5 | |
| 20260504235141 | 72 | 0.0 | 0.0 | 0.00 | 0.00 | 0.00 | 39 | 1008.4 | |
| 20260504234641 | 72 | 0.0 | 0.0 | 0.00 | 0.00 | 0.00 | 38 | 1008.5 | |
| 20260504234141 | 72 | 0.0 | 0.0 | 0.00 | 0.00 | 0.00 | 38 | 1008.4 | |
| 20260504233641 | 73 | 0.0 | 0.0 | 0.00 | 0.00 | 0.00 | 37 | 1008.5 | |
| 20260504233138 | 73 | 0.0 | 0.0 | 0.00 | 0.00 | 0.00 | 37 | 1008.4 | |
| 20260504232639 | 73 | 0.0 | 0.0 | 0.00 | 0.00 | 0.00 | 37 | 1008.3 | |
| 20260504232139 | 73 | 0.0 | 0.0 | 0.00 | 0.00 | 0.00 | 37 | 1008.3 | |
| 20260504231138 | 73 | 0.0 | 0.0 | 0.00 | 0.00 | 0.00 | 38 | 1008.3 | |
| 20260504230638 | 74 | 0.0 | 0.0 | 0.00 | 0.00 | 0.00 | 36 | 1008.3 | |
| 20260504230139 | 74 | 0.0 | 0.0 | 0.00 | 0.00 | 0.00 | 37 | 1008.3 | |
| 20260504225637 | 74 | 0.0 | 0.0 | 0.00 | 0.00 | 0.00 | 35 | 1008.2 | |
| 20260504225137 | 75 | 0.0 | 0.0 | 0.00 | 0.00 | 0.00 | 35 | 1008.3 | |
| 20260504224637 | 75 | 0.0 | 0.0 | 0.00 | 0.00 | 0.00 | 34 | 1008.3 | |
| 20260504224137 | 75 | 0.0 | 0.0 | 0.00 | 0.00 | 0.00 | 35 | 1008.3 | |
| 20260504223640 | 76 | 0.0 | 0.0 | 0.00 | 0.00 | 0.00 | 35 | 1008.3 | |
| 20260504223138 | 76 | 0.0 | 0.0 | 0.00 | 0.00 | 0.00 | 34 | 1008.4 | |
| 20260504222639 | 76 | 0.0 | 0.0 | 0.00 | 0.00 | 0.00 | 34 | 1008.4 | |
| 20260504221636 | 77 | 0.0 | 0.0 | 0.00 | 0.00 | 0.00 | 35 | 1008.2 | |
| 20260504221138 | 77 | 0.0 | 0.0 | 0.00 | 0.00 | 0.00 | 35 | 1008.2 | |
| 20260504220636 | 77 | 0.0 | 0.0 | 0.00 | 0.00 | 0.00 | 35 | 1008.2 | |
| 20260504220136 | 77 | 0.0 | 0.0 | 0.00 | 0.00 | 0.00 | 33 | 1008.3 | |
| 20260504215638 | 78 | 0.0 | 0.0 | 0.00 | 0.00 | 0.00 | 34 | 1008.3 | |
| 20260504214637 | 78 | 0.0 | 0.0 | 0.00 | 0.00 | 0.00 | 30 | 1008.1 | |
| 20260504214136 | 79 | 0.0 | 0.0 | 0.00 | 0.00 | 0.00 | 32 | 1008.2 | |
| 20260504213637 | 79 | 0.0 | 0.0 | 0.00 | 0.00 | 0.00 | 31 | 1008.2 | |
| 20260504212635 | 81 | 0.0 | 0.0 | 0.00 | 0.00 | 0.00 | 29 | 1008.2 | |
| 20260504212136 | 81 | 0.0 | 0.0 | 0.00 | 0.00 | 0.00 | 30 | 1008.2 | |
| 20260504211135 | 81 | 0.0 | 0.0 | 0.00 | 0.00 | 0.00 | 32 | 1008.3 | |
| 20260504210635 | 81 | 0.0 | 0.0 | 0.00 | 0.00 | 0.00 | 30 | 1008.3 | |
| 20260504205635 | 81 | 0.0 | 0.0 | 0.00 | 0.00 | 0.00 | 30 | 1008.2 | |
| 20260504205133 | 81 | 0.0 | 0.0 | 0.00 | 0.00 | 0.00 | 30 | 1008.3 | |
| 20260504204637 | 80 | 0.0 | 0.0 | 0.00 | 0.00 | 0.00 | 34 | 1008.3 | |
| 20260504204134 | 80 | 0.0 | 0.0 | 0.00 | 0.00 | 0.00 | 33 | 1008.3 | |
| 20260504203135 | 81 | 0.0 | 0.0 | 0.00 | 0.00 | 0.00 | 29 | 1008.5 | |
| 20260504202635 | 81 | 0.0 | 0.0 | 0.00 | 0.00 | 0.00 | 31 | 1008.5 | |
| 20260504202134 | 81 | 0.0 | 0.0 | 0.00 | 0.00 | 0.00 | 34 | 1008.5 | |
| 20260504201633 | 81 | 0.0 | 0.0 | 0.00 | 0.00 | 0.00 | 32 | 1008.6 | |
| 20260504201133 | 81 | 0.0 | 0.0 | 0.00 | 0.00 | 0.00 | 28 | 1008.8 | |
| 20260504200131 | 81 | 0.0 | 0.0 | 0.00 | 0.00 | 0.00 | 34 | 1008.9 | |
| 20260504195628 | 80 | 0.0 | 0.0 | 0.00 | 0.00 | 0.00 | 31 | 1008.9 | |
| 20260504195107 | 80 | 0.0 | 0.0 | 0.00 | 0.00 | 0.00 | 32 | 1008.9 | |
| 20260504194609 | 80 | 0.0 | 0.0 | 0.00 | 0.00 | 0.00 | 31 | 1009.1 | |
| 20260504194108 | 80 | 0.0 | 0.0 | 0.00 | 0.00 | 0.00 | 33 | 1008.9 | |
| 20260504193606 | 79 | 0.0 | 0.0 | 0.00 | 0.00 | 0.00 | 32 | 1009.2 | |
| 20260504193108 | 79 | 0.0 | 0.0 | 0.00 | 0.00 | 0.00 | 28 | 1009.3 | |
| 20260504192605 | 79 | 0.0 | 0.0 | 0.00 | 0.00 | 0.00 | 30 | 1009.4 | |
| 20260504191604 | 79 | 0.0 | 0.0 | 0.00 | 0.00 | 0.00 | 30 | 1009.5 | |
| 20260504191105 | 79 | 0.0 | 0.0 | 0.00 | 0.00 | 0.00 | 31 | 1009.6 | |
| 20260504190603 | 78 | 0.0 | 0.0 | 0.00 | 0.00 | 0.00 | 31 | 1009.7 | |
| 20260504185604 | 79 | 0.0 | 0.0 | 0.00 | 0.00 | 0.00 | 32 | 1010.0 | |
| 20260504185105 | 79 | 0.0 | 0.0 | 0.00 | 0.00 | 0.00 | 35 | 1010.1 | |
| 20260504184604 | 79 | 0.0 | 0.0 | 0.00 | 0.00 | 0.00 | 38 | 1010.2 | |
| 20260504184103 | 79 | 0.0 | 0.0 | 0.00 | 0.00 | 0.00 | 35 | 1010.2 | |
| 20260504183602 | 78 | 0.0 | 0.0 | 0.00 | 0.00 | 0.00 | 36 | 1010.2 | |
| 20260504183102 | 78 | 0.0 | 0.0 | 0.00 | 0.00 | 0.00 | 32 | 1010.3 | |
| 20260504182602 | 78 | 0.0 | 0.0 | 0.00 | 0.00 | 0.00 | 30 | 1010.4 | |
| 20260504182103 | 78 | 0.0 | 0.0 | 0.00 | 0.00 | 0.00 | 33 | 1010.5 | |
| 20260504181602 | 78 | 0.0 | 0.0 | 0.00 | 0.00 | 0.00 | 32 | 1010.7 | |
| 20260504181102 | 77 | 0.0 | 0.0 | 0.00 | 0.00 | 0.00 | 34 | 1010.6 | |
| 20260504180604 | 77 | 0.0 | 0.0 | 0.00 | 0.00 | 0.00 | 33 | 1010.7 | |
| 20260504175104 | 76 | 0.0 | 0.0 | 0.00 | 0.00 | 0.00 | 31 | 1010.9 | |
| 20260504174604 | 77 | 0.0 | 0.0 | 0.00 | 0.00 | 0.00 | 33 | 1011.0 | |
| 20260504174102 | 76 | 0.0 | 0.0 | 0.00 | 0.00 | 0.00 | 37 | 1011.0 | |
| 20260504173602 | 76 | 0.0 | 0.0 | 0.00 | 0.00 | 0.00 | 35 | 1011.0 | |
| 20260504173102 | 76 | 0.0 | 0.0 | 0.00 | 0.00 | 0.00 | 37 | 1011.1 | |
| 20260504172603 | 76 | 0.0 | 0.0 | 0.00 | 0.00 | 0.00 | 31 | 1011.1 | |
| 20260504172039 | 76 | 0.0 | 0.0 | 0.00 | 0.00 | 0.00 | 36 | 1011.2 | |
| 20260504171540 | 76 | 0.0 | 0.0 | 0.00 | 0.00 | 0.00 | 33 | 1011.3 | |
| 20260504171040 | 75 | 0.0 | 0.0 | 0.00 | 0.00 | 0.00 | 36 | 1011.4 | |
| 20260504170537 | 74 | 0.0 | 0.0 | 0.00 | 0.00 | 0.00 | 32 | 1011.5 | |
| 20260504151031 | 69 | 0.0 | 0.0 | 0.00 | 0.00 | 0.00 | 37 | 1012.8 | |
| 20260504150530 | 69 | 0.0 | 0.0 | 0.00 | 0.00 | 0.00 | 39 | 1012.6 | |
| 20260504130526 | 53 | 0.0 | 0.0 | 0.00 | 0.00 | 0.00 | 59 | 1013.4 | |
| 20260504110500 | 46 | 0.0 | 0.0 | 0.00 | 0.00 | 0.00 | 77 | 1013.7 | |
| 20260504100431 | 47 | 0.0 | 0.0 | 0.00 | 0.00 | 0.00 | 75 | 1013.7 | |
| 20260504081431 | 44 | 0.0 | 0.0 | 0.00 | 0.00 | 0.00 | 84 | 1013.8 | |
| 20260504080930 | 44 | 0.0 | 0.0 | 0.00 | 0.00 | 0.00 | 84 | 1013.8 | |
| 20260504080431 | 44 | 0.0 | 0.0 | 0.00 | 0.00 | 0.00 | 84 | 1013.9 | |
| 20260504045911 | 42 | 0.0 | 0.0 | 0.00 | 0.00 | 0.00 | 81 | 1014.5 | |
| 20260504045412 | 42 | 0.0 | 0.0 | 0.00 | 0.00 | 0.00 | 80 | 1014.6 | |
| 20260504044911 | 42 | 0.0 | 0.0 | 0.00 | 0.00 | 0.00 | 80 | 1014.5 | |
| 20260504044411 | 42 | 0.0 | 0.0 | 0.00 | 0.00 | 0.00 | 79 | 1014.5 | |
| 20260504043913 | 42 | 0.0 | 0.0 | 0.00 | 0.00 | 0.00 | 79 | 1014.4 | |
| 20260504042410 | 43 | 0.0 | 0.0 | 0.00 | 0.00 | 0.00 | 78 | 1014.4 | |
| 20260504041910 | 43 | 0.0 | 0.0 | 0.00 | 0.00 | 0.00 | 77 | 1014.4 | |
| 20260504041411 | 43 | 0.0 | 0.0 | 0.00 | 0.00 | 0.00 | 76 | 1014.4 |